| time (UTC) | temp F | wind direction | speed MPH | gust MPH | rain 1hr in | rain 24hr in | rain mn in | humidity % | barometer mb |
| 20260510201519 | 65 | 0.0 | 0.0 | 0.01 | 0.04 | 0.03 | 22 | 1012.4 | |
| 20260510200519 | 66 | 0.0 | 2.0 | 0.01 | 0.04 | 0.03 | 36 | 1012.2 | |
| 20260510195729 | 66 | 0.0 | 1.0 | 0.01 | 0.04 | 0.03 | 36 | 1012.4 | |
| 20260510194519 | 66 | 0.0 | 2.0 | 0.01 | 0.04 | 0.03 | 42 | 1012.6 | |
| 20260510193519 | 66 | 0.0 | 1.0 | 0.00 | 0.03 | 0.02 | 37 | 1012.6 | |
| 20260510192732 | 66 | 0.0 | 3.0 | 0.00 | 0.03 | 0.02 | 40 | 1012.5 | |
| 20260510191519 | 67 | 0.0 | 2.0 | 0.00 | 0.04 | 0.02 | 45 | 1012.5 | |
| 20260510190519 | 66 | 0.0 | 1.0 | 0.00 | 0.04 | 0.02 | 38 | 1012.6 | |
| 20260510185519 | 66 | 0.0 | 1.0 | 0.00 | 0.04 | 0.02 | 39 | 1012.5 | |
| 20260510184519 | 66 | 0.0 | 1.0 | 0.00 | 0.04 | 0.02 | 39 | 1012.5 | |
| 20260510183519 | 66 | 0.0 | 3.0 | 0.00 | 0.04 | 0.02 | 40 | 1012.6 | |
| 20260510182519 | 66 | 0.0 | 1.0 | 0.00 | 0.04 | 0.02 | 36 | 1012.5 | |
| 20260510181728 | 65 | 180 | 1.0 | 2.0 | 0.00 | 0.04 | 0.02 | 47 | 1012.6 |
| 20260510180519 | 65 | 180 | 1.0 | 2.0 | 0.00 | 0.04 | 0.02 | 49 | 1012.5 |
| 20260510175519 | 65 | 0.0 | 1.0 | 0.00 | 0.04 | 0.02 | 40 | 1012.4 | |
| 20260510174519 | 65 | 180 | 1.0 | 2.0 | 0.00 | 0.04 | 0.02 | 46 | 1012.7 |
| 20260510173519 | 65 | 180 | 1.0 | 3.0 | 0.00 | 0.04 | 0.02 | 40 | 1012.6 |
| 20260510172519 | 65 | 0.0 | 0.0 | 0.00 | 0.04 | 0.02 | 35 | 1012.6 | |
| 20260510171519 | 64 | 0.0 | 0.0 | 0.00 | 0.04 | 0.02 | 29 | 1012.5 | |
| 20260510170519 | 64 | 0.0 | 0.0 | 0.00 | 0.04 | 0.02 | 26 | 1012.5 | |
| 20260510165519 | 64 | 0.0 | 1.0 | 0.01 | 0.04 | 0.02 | 27 | 1012.4 | |
| 20260510164519 | 64 | 180 | 1.0 | 2.0 | 0.01 | 0.04 | 0.02 | 34 | 1012.6 |
| 20260510163519 | 64 | 180 | 1.0 | 3.0 | 0.01 | 0.04 | 0.02 | 33 | 1012.6 |
| 20260510162519 | 64 | 180 | 2.0 | 3.0 | 0.01 | 0.04 | 0.02 | 31 | 1012.5 |
| 20260510161519 | 64 | 180 | 1.0 | 3.0 | 0.01 | 0.04 | 0.02 | 31 | 1012.6 |
| 20260510160520 | 64 | 180 | 2.0 | 4.0 | 0.01 | 0.05 | 0.02 | 43 | 1012.7 |
| 20260510155520 | 64 | 180 | 3.0 | 6.0 | 0.00 | 0.04 | 0.01 | 40 | 1012.8 |
| 20260510154520 | 64 | 180 | 2.0 | 5.0 | 0.00 | 0.04 | 0.01 | 40 | 1012.9 |
| 20260510153519 | 64 | 180 | 2.0 | 5.0 | 0.00 | 0.04 | 0.01 | 42 | 1012.9 |
| 20260510152519 | 64 | 180 | 2.0 | 3.0 | 0.00 | 0.04 | 0.01 | 43 | 1012.8 |
| 20260510151730 | 64 | 180 | 4.0 | 7.0 | 0.00 | 0.04 | 0.01 | 46 | 1012.6 |
| 20260510150519 | 64 | 180 | 3.0 | 6.0 | 0.00 | 0.04 | 0.01 | 33 | 1012.4 |
| 20260510145519 | 63 | 158 | 1.0 | 4.0 | 0.00 | 0.04 | 0.01 | 24 | 1012.2 |
| 20260510144519 | 63 | 158 | 1.0 | 5.0 | 0.00 | 0.04 | 0.01 | 10 | 1012.1 |
| 20260510143520 | 62 | 158 | 2.0 | 5.0 | 0.00 | 0.04 | 0.01 | 9 | 1011.9 |
| 20260510142519 | 62 | 158 | 3.0 | 6.0 | 0.00 | 0.04 | 0.01 | 8 | 1011.6 |
| 20260510141519 | 62 | 158 | 3.0 | 6.0 | 0.00 | 0.04 | 0.01 | 6 | 1011.8 |
| 20260510140520 | 62 | 158 | 4.0 | 8.0 | 0.00 | 0.04 | 0.01 | 7 | 1011.7 |
| 20260510135519 | 62 | 113 | 3.0 | 5.0 | 0.00 | 0.04 | 0.01 | 100 | 1011.5 |
| 20260510134520 | 62 | 113 | 2.0 | 7.0 | 0.00 | 0.04 | 0.01 | 100 | 1011.4 |
| 20260510133519 | 61 | 113 | 2.0 | 8.0 | 0.00 | 0.04 | 0.01 | 100 | 1011.5 |
| 20260510132730 | 60 | 0 | 1.0 | 4.0 | 0.00 | 0.04 | 0.01 | 100 | 1011.7 |
| 20260510131520 | 59 | 0 | 1.0 | 4.0 | 0.00 | 0.04 | 0.01 | 100 | 1011.8 |
| 20260510130519 | 58 | 0 | 2.0 | 5.0 | 0.00 | 0.04 | 0.01 | 100 | 1011.7 |
| 20260510125519 | 58 | 0 | 3.0 | 5.0 | 0.00 | 0.04 | 0.01 | 100 | 1011.6 |
| 20260510124520 | 57 | 0 | 1.0 | 3.0 | 0.00 | 0.04 | 0.01 | 100 | 1011.4 |
| 20260510123519 | 57 | 0 | 1.0 | 4.0 | 0.00 | 0.04 | 0.01 | 100 | 1011.3 |
| 20260510122520 | 57 | 0.0 | 2.0 | 0.00 | 0.04 | 0.01 | 100 | 1011.2 | |
| 20260510121519 | 56 | 0 | 2.0 | 3.0 | 0.00 | 0.04 | 0.01 | 100 | 1011.4 |
| 20260510120520 | 56 | 315 | 2.0 | 5.0 | 0.00 | 0.04 | 0.01 | 100 | 1011.4 |
| 20260510115519 | 55 | 315 | 1.0 | 2.0 | 0.00 | 0.04 | 0.01 | 100 | 1011.5 |
| 20260510114519 | 54 | 0.0 | 2.0 | 0.00 | 0.04 | 0.01 | 100 | 1011.5 | |
| 20260510113520 | 54 | 0.0 | 0.0 | 0.00 | 0.04 | 0.01 | 100 | 1011.2 | |
| 20260510112520 | 53 | 0.0 | 1.0 | 0.00 | 0.04 | 0.01 | 100 | 1011.0 | |
| 20260510111520 | 52 | 0.0 | 0.0 | 0.00 | 0.04 | 0.01 | 100 | 1010.8 | |
| 20260510110520 | 51 | 0.0 | 0.0 | 0.00 | 0.04 | 0.01 | 100 | 1010.5 | |
| 20260510105519 | 51 | 0.0 | 1.0 | 0.00 | 0.04 | 0.01 | 100 | 1010.4 | |
| 20260510104519 | 51 | 0.0 | 0.0 | 0.00 | 0.04 | 0.01 | 100 | 1010.2 | |
| 20260510103732 | 51 | 0.0 | 1.0 | 0.00 | 0.04 | 0.01 | 100 | 1010.1 | |
| 20260510102520 | 50 | 0.0 | 0.0 | 0.00 | 0.04 | 0.01 | 100 | 1010.0 | |
| 20260510101520 | 50 | 0.0 | 1.0 | 0.00 | 0.04 | 0.01 | 100 | 1009.6 | |
| 20260510100520 | 51 | 0.0 | 2.0 | 0.01 | 0.04 | 0.01 | 100 | 1009.6 | |
| 20260510095730 | 51 | 0.0 | 0.0 | 0.01 | 0.04 | 0.01 | 100 | 1009.5 | |
| 20260510094520 | 51 | 0.0 | 0.0 | 0.01 | 0.04 | 0.01 | 100 | 1009.6 | |
| 20260510093519 | 52 | 0.0 | 0.0 | 0.01 | 0.04 | 0.01 | 100 | 1009.4 | |
| 20260510092520 | 52 | 0.0 | 3.0 | 0.01 | 0.04 | 0.01 | 100 | 1009.1 | |
| 20260510091520 | 52 | 0.0 | 1.0 | 0.01 | 0.04 | 0.01 | 100 | 1008.9 | |
| 20260510090519 | 52 | 0.0 | 1.0 | 0.00 | 0.03 | 0.00 | 100 | 1009.2 | |
| 20260510085520 | 52 | 315 | 1.0 | 2.0 | 0.00 | 0.03 | 0.00 | 100 | 1009.8 |
| 20260510084520 | 52 | 315 | 1.0 | 3.0 | 0.00 | 0.03 | 0.00 | 100 | 1010.5 |
| 20260510083520 | 52 | 315 | 1.0 | 2.0 | 0.00 | 0.03 | 0.00 | 100 | 1010.6 |
| 20260510082520 | 52 | 315 | 1.0 | 3.0 | 0.00 | 0.03 | 0.00 | 100 | 1010.6 |
| 20260510081519 | 52 | 315 | 4.0 | 8.0 | 0.00 | 0.03 | 0.00 | 100 | 1010.2 |
| 20260510080520 | 51 | 0.0 | 0.0 | 0.00 | 0.03 | 0.00 | 100 | 1009.3 | |
| 20260510075520 | 51 | 0.0 | 0.0 | 0.00 | 0.03 | 0.00 | 100 | 1008.9 | |
| 20260510074520 | 51 | 0.0 | 0.0 | 0.00 | 0.03 | 0.00 | 100 | 1008.8 | |
| 20260510073520 | 51 | 0.0 | 0.0 | 0.00 | 0.03 | 0.00 | 100 | 1008.7 | |
| 20260510072520 | 51 | 0.0 | 0.0 | 0.00 | 0.03 | 0.00 | 100 | 1008.4 | |
| 20260510071520 | 50 | 0.0 | 0.0 | 0.00 | 0.03 | 0.00 | 100 | 1008.7 | |
| 20260510070520 | 50 | 0.0 | 0.0 | 0.00 | 0.03 | 0.00 | 100 | 1008.6 | |
| 20260510065520 | 50 | 0.0 | 0.0 | 0.00 | 0.03 | 0.00 | 100 | 1008.7 | |
| 20260510064520 | 50 | 0.0 | 1.0 | 0.00 | 0.03 | 0.00 | 100 | 1008.9 | |
| 20260510063520 | 51 | 0.0 | 1.0 | 0.00 | 0.03 | 0.00 | 100 | 1009.3 | |
| 20260510062520 | 51 | 0.0 | 0.0 | 0.00 | 0.03 | 0.00 | 100 | 1009.5 | |
| 20260510061520 | 51 | 0.0 | 0.0 | 0.00 | 0.03 | 0.00 | 100 | 1009.5 | |
| 20260510060732 | 52 | 0.0 | 0.0 | 0.00 | 0.03 | 0.00 | 100 | 1009.6 | |
| 20260510055520 | 52 | 315 | 1.0 | 3.0 | 0.00 | 0.03 | 0.00 | 100 | 1009.7 |
| 20260510054520 | 53 | 315 | 2.0 | 7.0 | 0.00 | 0.03 | 0.00 | 100 | 1009.8 |
| 20260510053520 | 51 | 315 | 8.0 | 18.0 | 0.00 | 0.03 | 0.00 | 100 | 1010.1 |
| 20260510052520 | 50 | 0.0 | 1.0 | 0.00 | 0.03 | 0.00 | 100 | 1009.1 | |
| 20260510051520 | 50 | 0.0 | 0.0 | 0.00 | 0.03 | 0.00 | 100 | 1009.2 | |
| 20260510050520 | 50 | 0.0 | 0.0 | 0.00 | 0.03 | 0.00 | 100 | 1009.4 | |
| 20260510045544 | 50 | 0.0 | 2.0 | 0.00 | 0.03 | 0.00 | 100 | 1009.5 | |
| 20260510044729 | 51 | 0.0 | 2.0 | 0.00 | 0.03 | 0.00 | 100 | 1009.3 | |
| 20260510043520 | 51 | 0.0 | 0.0 | 0.00 | 0.03 | 0.00 | 100 | 1008.9 | |
| 20260510042520 | 51 | 0.0 | 0.0 | 0.00 | 0.03 | 0.00 | 100 | 1008.6 | |
| 20260510041520 | 51 | 0.0 | 2.0 | 0.00 | 0.03 | 0.00 | 100 | 1008.5 | |
| 20260510040520 | 51 | 0.0 | 3.0 | 0.00 | 0.03 | 0.00 | 100 | 1008.5 | |
| 20260510035519 | 51 | 0.0 | 1.0 | 0.00 | 0.03 | 0.03 | 100 | 1008.5 | |
| 20260510034519 | 51 | 0.0 | 1.0 | 0.00 | 0.03 | 0.03 | 100 | 1008.4 | |
| 20260510033519 | 51 | 0.0 | 0.0 | 0.00 | 0.03 | 0.03 | 100 | 1008.4 | |
| 20260510032519 | 51 | 0.0 | 1.0 | 0.00 | 0.03 | 0.03 | 100 | 1008.5 | |
| 20260510031519 | 51 | 0.0 | 2.0 | 0.00 | 0.03 | 0.03 | 100 | 1008.6 | |
| 20260510030519 | 51 | 0.0 | 0.0 | 0.00 | 0.03 | 0.03 | 100 | 1008.5 | |
| 20260510025519 | 52 | 0.0 | 0.0 | 0.00 | 0.03 | 0.03 | 100 | 1008.7 | |
| 20260510024519 | 52 | 0.0 | 0.0 | 0.00 | 0.03 | 0.03 | 100 | 1008.6 | |
| 20260510023732 | 52 | 0.0 | 0.0 | 0.00 | 0.03 | 0.03 | 100 | 1008.6 | |
| 20260510022520 | 52 | 0.0 | 0.0 | 0.00 | 0.03 | 0.03 | 100 | 1008.5 | |
| 20260510021519 | 53 | 0.0 | 0.0 | 0.00 | 0.03 | 0.03 | 100 | 1008.6 | |
| 20260510020519 | 53 | 0.0 | 0.0 | 0.00 | 0.03 | 0.03 | 100 | 1008.6 | |
| 20260510015519 | 54 | 0.0 | 0.0 | 0.00 | 0.03 | 0.03 | 100 | 1008.5 | |
| 20260510014519 | 54 | 0.0 | 0.0 | 0.00 | 0.03 | 0.03 | 100 | 1008.3 | |
| 20260510013519 | 54 | 0.0 | 0.0 | 0.00 | 0.03 | 0.03 | 100 | 1008.1 | |
| 20260510012520 | 55 | 0.0 | 0.0 | 0.00 | 0.03 | 0.03 | 100 | 1008.0 | |
| 20260510011729 | 55 | 0.0 | 0.0 | 0.00 | 0.03 | 0.03 | 100 | 1007.8 | |
| 20260510010730 | 56 | 0.0 | 0.0 | 0.00 | 0.03 | 0.03 | 100 | 1007.8 | |
| 20260510005731 | 56 | 0.0 | 2.0 | 0.00 | 0.03 | 0.03 | 100 | 1007.6 | |
| 20260510004519 | 56 | 0.0 | 0.0 | 0.01 | 0.03 | 0.03 | 100 | 1007.5 | |
| 20260510003946 | 57 | 0.0 | 0.0 | 0.01 | 0.03 | 0.03 | 100 | 1007.5 | |
| 20260510002519 | 58 | 0.0 | 0.0 | 0.01 | 0.03 | 0.03 | 100 | 1007.6 | |
| 20260510001519 | 58 | 0.0 | 0.0 | 0.01 | 0.03 | 0.03 | 100 | 1007.6 | |
| 20260510000730 | 59 | 0.0 | 1.0 | 0.01 | 0.03 | 0.03 | 100 | 1007.4 | |
| 20260509235519 | 60 | 0.0 | 0.0 | 0.01 | 0.03 | 0.03 | 100 | 1007.1 | |
| 20260509234519 | 61 | 0.0 | 0.0 | 0.00 | 0.02 | 0.02 | 2 | 1007.1 | |
| 20260509233519 | 62 | 0.0 | 2.0 | 0.00 | 0.02 | 0.02 | 15 | 1007.1 | |
| 20260509232519 | 61 | 180 | 1.0 | 5.0 | 0.00 | 0.02 | 0.02 | 18 | 1007.2 |
| 20260509231519 | 62 | 180 | 1.0 | 4.0 | 0.00 | 0.02 | 0.02 | 16 | 1007.2 |
| 20260509230944 | 62 | 180 | 2.0 | 5.0 | 0.00 | 0.02 | 0.02 | 20 | 1007.2 |
| 20260509225732 | 62 | 158 | 1.0 | 5.0 | 0.00 | 0.02 | 0.02 | 16 | 1007.3 |
| 20260509224520 | 62 | 158 | 3.0 | 6.0 | 0.00 | 0.02 | 0.02 | 26 | 1007.3 |
| 20260509223519 | 62 | 180 | 3.0 | 6.0 | 0.00 | 0.02 | 0.02 | 26 | 1007.2 |
| 20260509222520 | 62 | 180 | 2.0 | 6.0 | 0.00 | 0.02 | 0.02 | 27 | 1007.3 |
| 20260509221519 | 62 | 180 | 3.0 | 6.0 | 0.00 | 0.02 | 0.02 | 30 | 1007.3 |
| 20260509220519 | 62 | 180 | 2.0 | 4.0 | 0.00 | 0.02 | 0.02 | 23 | 1007.3 |
| 20260509215519 | 62 | 180 | 3.0 | 7.0 | 0.00 | 0.02 | 0.02 | 21 | 1007.3 |
| 20260509214520 | 62 | 158 | 3.0 | 5.0 | 0.00 | 0.02 | 0.02 | 7 | 1007.3 |
| 20260509213520 | 62 | 90 | 1.0 | 6.0 | 0.00 | 0.02 | 0.02 | 100 | 1007.5 |
| 20260509212519 | 61 | 90 | 1.0 | 3.0 | 0.00 | 0.02 | 0.02 | 100 | 1007.6 |
| 20260509211520 | 61 | 90 | 2.0 | 6.0 | 0.00 | 0.02 | 0.02 | 100 | 1007.7 |
| 20260509210520 | 60 | 158 | 2.0 | 5.0 | 0.00 | 0.02 | 0.02 | 100 | 1007.7 |
| 20260509205519 | 60 | 203 | 2.0 | 4.0 | 0.00 | 0.02 | 0.02 | 100 | 1007.8 |
| 20260509204520 | 58 | 203 | 1.0 | 3.0 | 0.00 | 0.02 | 0.02 | 100 | 1007.7 |
| 20260509203520 | 57 | 113 | 2.0 | 5.0 | 0.00 | 0.02 | 0.02 | 100 | 1007.8 |
| 20260509202519 | 56 | 90 | 4.0 | 7.0 | 0.00 | 0.02 | 0.02 | 100 | 1007.7 |